Regional Weather Roundup
Issued by NWS

Home | Current Version | Previous Version | Graphics & Text | Print | Product List | Glossary On
Versions: 1 2 3 4 5 6 7 8 9 10 11 12 13 14 15 16 17 18 19 20 21 22 23 24 25 26 27 28 29 30 31 32 33 34 35 36 37 38 39 40 41 42 43 44 45 46 47 48 49 50
000
ASUS43 KLOT 052100
RWRIL

ILLINOIS REGIONAL WEATHER ROUNDUP
NATIONAL WEATHER SERVICE CHICAGO/ROMEOVILLE IL
400 PM CDT SUN JUL 05 2015

NOTE: "FAIR" INDICATES FEW OR NO CLOUDS BELOW 12,000 FEET WITH NO
SIGNIFICANT WEATHER AND/OR OBSTRUCTIONS TO VISIBILITY.

* THESE STATIONS ARE NOT UNDER NWS QUALITY CONTROL. THEY ALSO MAY NOT
  REPORT WEATHER SUCH AS PRECIPITATION OR FOG.

ILZ001-002-007-009-015-016-024-052200-
NORTHWEST ILLINOIS

CITY           SKY/WX    TMP DP  RH WIND       PRES   REMARKS
MOLINE         MOSUNNY   83  65  54 S10       30.00F HX  85
STERLING*      MOSUNNY   82  66  57 S6        30.02F HX  85
$$

ILZ003-004-008-010-011-017-018-052200-
NORTH CENTRAL ILLINOIS

CITY           SKY/WX    TMP DP  RH WIND       PRES   REMARKS
ROCKFORD       MOSUNNY   82  64  54 S12       30.05S HX  83
$$

ILZ005-006-012>014-019>023-052200-
NORTHEAST ILLINOIS

CITY           SKY/WX    TMP DP  RH WIND       PRES   REMARKS
CHICAGO-OHARE  MOSUNNY   82  59  45 S9        30.04S HX  82
CHICAGO-MIDWAY MOSUNNY   84  59  42 S7        30.04S HX  84
AURORA         SUNNY     82  61  48 S12G17    30.05S HX  83
WAUKEGAN       SUNNY     75  60  59 E9        30.05S
DUPAGE AIRPORT SUNNY     82  62  50 S8        30.04S HX  83
WHEELING       SUNNY     83  59  44 S10       30.05S HX  83
NORTHERLY ISL    N/A     73  62  68 E13         N/A
$$

LMZ740>746-052200-
SOUTHERN LAKE MICHIGAN

STATION/POSITION SKY/WX   TEMP    WIND        PRES    VSBY  WAVE
                          AIR SEA DIR/SP/G                  HT/PER
                          (F)     (DEG/KT/KT) (MB)    (MI)  (FT/S)
HARRISON CRIB              71     100/ 14/ 16   N/A
BURNHAM HARBOR             73      90/  8/ 11   N/A
CALUMET HARBOR             74      50/  8/ 11   N/A
BURNS HARBOR               74      80/  7/ 10 1018.6F
MICHIGAN CITY              69      10/  6/  6   N/A
MICHIGAN CITY 6N           70 68   40/  4/  4   N/A           1
ST. JOSEPH                 71 66                N/A           0
$$

ILZ025>027-034>036-040-047-049-050-058-095>099-052200-
WEST-CENTRAL ILLINOIS

CITY           SKY/WX    TMP DP  RH WIND       PRES   REMARKS
QUINCY         MOSUNNY   85  67  54 S10       30.00F HX  87
MACOMB*        MOSUNNY   82  69  65 S7        30.03F HX  85
$$

ILZ028>032-037-038-041>044-048-051>054-059>061-052200-
CENTRAL ILLINOIS

CITY           SKY/WX    TMP DP  RH WIND       PRES   REMARKS
DECATUR        PTSUNNY   82  64  54 SE10      30.06R HX  83
PEORIA         SUNNY     84  64  50 S7        30.03F HX  85
SPRINGFIELD    SUNNY     84  66  54 S8        30.04S HX  86
TAYLORVILLE    NOT AVBL
$$

ILZ033-039-045-046-055>057-062-063-052200-
EAST-CENTRAL ILLINOIS

CITY           SKY/WX    TMP DP  RH WIND       PRES   REMARKS
CHAMPAIGN      PTSUNNY   82  65  56 SW6       30.06F HX  84
MATTOON        MOSUNNY   82  67  60 VRB3      30.05F HX  84
$$

ILZ079-100>102-052200-
SOUTHWEST ILLINOIS

CITY           SKY/WX    TMP DP  RH WIND       PRES   REMARKS
BELLEVILLE     MOSUNNY   85  69  57 S9        30.03F HX  89
CAHOKIA*       MOSUNNY   86  66  51 S7        30.03S HX  88
SPARTA*        SUNNY     84  67  56 S6        30.06F HX  86
$$

ILZ064>066-069>071-074>076-080>082-084>086-088>090-092>094-052200-
SOUTH-CENTRAL ILLINOIS

CITY           SKY/WX    TMP DP  RH WIND       PRES   REMARKS
CARBONDALE     MOSUNNY   84  66  54 VRB6      30.05F HX  86
MARION         MOSUNNY   84  66  54 CALM      30.06F HX  86
MT. VERNON     SUNNY     86  64  48 S6        30.06F HX  87
$$

ILZ067-068-072-073-078-083-087-091-052200-
SOUTHEAST ILLINOIS

CITY           SKY/WX    TMP DP  RH WIND       PRES   REMARKS
LAWRENCEVILLE  SUNNY     83  69  62 S7        30.06S HX  86
HARRISBURG*    MOSUNNY   84  67  56 SW5       30.07S HX  86
$$

ABBREVIATIONS USED IN REMARKS
   TC - TEMPERATURE IN CELSIUS
  WCI - WIND CHILL INDEX
   HX - HEAT INDEX
  VSB - VISIBILITY
$$




USA.gov is the U.S. government's official web portal to all federal, state and local government web resources and services.